• In Deutschland
  • Länderverzeichnis
  • Für 7 Tage
  • Wassertemperatur
  • Satellitenkarten
  • Wetterkarte
  • Widgets
  • user-avatar
    Anmelden

    Stündliche Wetter Heiligendamm

    Heute, 22 September, Samstag

    Zeit Temperatur Niederschläge Wind Luftdruck Luftfeuchtigkeit
    00:00 +9°C° 0 mm 10 m/S 754 mmHg 74%
    01:00 +7°C° 0 mm 8 m/S 755 mmHg 79%
    02:00 +8°C° 0 mm 9 m/S 755 mmHg 80%
    03:00 +8°C° 0 mm 9 m/S 755 mmHg 81%
    04:00 +8°C° 0 mm 10 m/S 756 mmHg 82%
    05:00 +8°C° 0.1 mm 9 m/S 756 mmHg 82%
    06:00 +8°C° 0.1 mm 9 m/S 757 mmHg 83%
    07:00 +9°C° 0.1 mm 8 m/S 757 mmHg 83%
    08:00 +11°C° 0.1 mm 9 m/S 758 mmHg 76%
    09:00 +12°C° 0.1 mm 9 m/S 758 mmHg 70%
    10:00 +15°C° 0.1 mm 9 m/S 758 mmHg 64%
    11:00 +14°C° 0.3 mm 10 m/S 758 mmHg 62%
    12:00 +16°C° 0.3 mm 10 m/S 758 mmHg 60%
    13:00 +16°C° 0.3 mm 11 m/S 758 mmHg 57%
    14:00 +16°C° 0.3 mm 10 m/S 758 mmHg 59%
    15:00 +14°C° 0.3 mm 10 m/S 758 mmHg 61%
    16:00 +14°C° 0.3 mm 10 m/S 758 mmHg 63%
    17:00 +13°C° 0.1 mm 10 m/S 758 mmHg 67%
    18:00 +12°C° 0.1 mm 9 m/S 758 mmHg 71%
    19:00 +10°C° 0.1 mm 8 m/S 758 mmHg 75%
    20:00 +10°C° 0.1 mm 8 m/S 758 mmHg 77%
    21:00 +10°C° 0.1 mm 8 m/S 759 mmHg 78%
    22:00 +9°C° 0.1 mm 8 m/S 759 mmHg 80%
    23:00 +9°C° 0 mm 8 m/S 759 mmHg 81%

    Morgen, 23 September, Sonntag

    Zeit Temperatur Niederschläge Wind Luftdruck Luftfeuchtigkeit
    00:00 +9°C° 0 mm 8 m/S 759 mmHg 82%
    01:00 +7°C° 0 mm 8 m/S 759 mmHg 83%
    02:00 +7°C° 0 mm 8 m/S 758 mmHg 84%
    03:00 +8°C° 0 mm 7 m/S 758 mmHg 86%
    04:00 +6°C° 0 mm 7 m/S 758 mmHg 87%
    05:00 +6°C° 0.1 mm 7 m/S 758 mmHg 87%
    06:00 +6°C° 0.1 mm 7 m/S 758 mmHg 88%
    07:00 +6°C° 0.1 mm 7 m/S 758 mmHg 88%
    08:00 +9°C° 0.1 mm 6 m/S 758 mmHg 81%
    09:00 +11°C° 0.1 mm 6 m/S 758 mmHg 74%
    10:00 +13°C° 0.1 mm 6 m/S 758 mmHg 66%
    11:00 +14°C° 0.1 mm 5 m/S 758 mmHg 64%
    12:00 +14°C° 0.1 mm 5 m/S 758 mmHg 61%
    13:00 +15°C° 0.1 mm 4 m/S 757 mmHg 58%
    14:00 +14°C° 0 mm 4 m/S 757 mmHg 59%
    15:00 +14°C° 0 mm 4 m/S 756 mmHg 60%
    16:00 +14°C° 0 mm 3 m/S 756 mmHg 61%
    17:00 +13°C° 0.2 mm 4 m/S 755 mmHg 66%
    18:00 +12°C° 0.2 mm 4 m/S 755 mmHg 71%
    19:00 +10°C° 0.2 mm 5 m/S 755 mmHg 76%
    20:00 +10°C° 0.2 mm 6 m/S 756 mmHg 76%
    21:00 +10°C° 0.2 mm 7 m/S 756 mmHg 76%
    22:00 +10°C° 0.2 mm 8 m/S 757 mmHg 76%
    23:00 +9°C° 0 mm 8 m/S 757 mmHg 75%

    übermorgen, 24 September, Montag

    Zeit Temperatur Niederschläge Wind Luftdruck Luftfeuchtigkeit
    00:00 +8°C° 0 mm 9 m/S 758 mmHg 74%
    01:00 +8°C° 0 mm 9 m/S 758 mmHg 73%
    02:00 +8°C° 0 mm 10 m/S 759 mmHg 72%
    03:00 +7°C° 0 mm 10 m/S 760 mmHg 71%
    04:00 +7°C° 0 mm 10 m/S 761 mmHg 70%
    05:00 +7°C° 0 mm 11 m/S 762 mmHg 69%
    06:00 +7°C° 0 mm 11 m/S 762 mmHg 68%
    07:00 +7°C° 0 mm 11 m/S 763 mmHg 66%
    08:00 +8°C° 0.1 mm 12 m/S 764 mmHg 61%
    09:00 +9°C° 0.1 mm 12 m/S 765 mmHg 56%
    10:00 +10°C° 0.1 mm 12 m/S 765 mmHg 51%
    11:00 +12°C° 0.1 mm 12 m/S 766 mmHg 50%
    12:00 +12°C° 0.1 mm 12 m/S 766 mmHg 49%
    13:00 +12°C° 0.1 mm 11 m/S 767 mmHg 47%
    14:00 +12°C° 0.2 mm 11 m/S 767 mmHg 48%
    15:00 +11°C° 0.2 mm 11 m/S 768 mmHg 49%
    16:00 +11°C° 0.2 mm 11 m/S 768 mmHg 50%
    17:00 +9°C° 0.2 mm 10 m/S 769 mmHg 53%
    18:00 +8°C° 0.2 mm 9 m/S 769 mmHg 56%
    19:00 +8°C° 0.2 mm 9 m/S 770 mmHg 59%
    20:00 +7°C° 0.1 mm 8 m/S 771 mmHg 61%
    21:00 +8°C° 0.1 mm 7 m/S 771 mmHg 63%
    22:00 +8°C° 0.1 mm 7 m/S 772 mmHg 65%
    23:00 +7°C° 0 mm 6 m/S 772 mmHg 66%

    25 September, Dienstag

    Zeit Temperatur Niederschläge Wind Luftdruck Luftfeuchtigkeit
    00:00 +7°C° 0 mm 6 m/S 773 mmHg 68%
    01:00 +7°C° 0 mm 6 m/S 773 mmHg 69%
    02:00 +7°C° 0 mm 5 m/S 774 mmHg 69%
    03:00 +6°C° 0 mm 5 m/S 774 mmHg 70%
    04:00 +6°C° 0 mm 5 m/S 774 mmHg 70%
    05:00 +6°C° 0 mm 5 m/S 775 mmHg 70%
    06:00 +6°C° 0 mm 5 m/S 775 mmHg 70%
    07:00 +6°C° 0 mm 5 m/S 775 mmHg 71%
    08:00 +8°C° 0 mm 5 m/S 776 mmHg 65%
    09:00 +10°C° 0 mm 5 m/S 776 mmHg 59%
    10:00 +13°C° 0 mm 5 m/S 776 mmHg 54%
    11:00 +13°C° 0 mm 5 m/S 776 mmHg 53%
    12:00 +13°C° 0 mm 5 m/S 776 mmHg 52%
    13:00 +14°C° 0 mm 5 m/S 776 mmHg 52%
    14:00 +14°C° 0 mm 5 m/S 776 mmHg 52%
    15:00 +14°C° 0 mm 5 m/S 776 mmHg 53%
    16:00 +14°C° 0 mm 5 m/S 775 mmHg 53%
    17:00 +13°C° 0 mm 5 m/S 775 mmHg 59%
    18:00 +10°C° 0 mm 5 m/S 775 mmHg 64%
    19:00 +9°C° 0 mm 5 m/S 775 mmHg 69%
    20:00 +9°C° 0 mm 5 m/S 775 mmHg 71%
    21:00 +8°C° 0 mm 5 m/S 775 mmHg 73%
    22:00 +8°C° 0 mm 5 m/S 775 mmHg 76%
    23:00 +7°C° 0 mm 5 m/S 774 mmHg 78%

    26 September, Mittwoch

    Zeit Temperatur Niederschläge Wind Luftdruck Luftfeuchtigkeit
    00:00 +7°C° 0 mm 6 m/S 774 mmHg 79%
    01:00 +7°C° 0 mm 6 m/S 774 mmHg 81%
    02:00 +7°C° 0 mm 6 m/S 773 mmHg 80%
    03:00 +6°C° 0 mm 7 m/S 773 mmHg 80%
    04:00 +5°C° 0 mm 7 m/S 772 mmHg 79%
    05:00 +6°C° 0 mm 8 m/S 772 mmHg 76%
    06:00 +6°C° 0 mm 8 m/S 771 mmHg 73%
    07:00 +7°C° 0 mm 8 m/S 771 mmHg 70%
    08:00 +8°C° 0 mm 9 m/S 770 mmHg 65%
    09:00 +11°C° 0 mm 9 m/S 770 mmHg 60%
    10:00 +12°C° 0 mm 10 m/S 769 mmHg 56%
    11:00 +13°C° 0 mm 10 m/S 769 mmHg 52%
    12:00 +14°C° 0 mm 10 m/S 769 mmHg 49%
    13:00 +16°C° 0 mm 10 m/S 768 mmHg 45%
    14:00 +16°C° 0 mm 10 m/S 767 mmHg 46%
    15:00 +17°C° 0 mm 10 m/S 767 mmHg 47%
    16:00 +17°C° 0 mm 10 m/S 766 mmHg 48%
    17:00 +16°C° 0 mm 9 m/S 766 mmHg 51%
    18:00 +15°C° 0 mm 9 m/S 766 mmHg 54%
    19:00 +13°C° 0 mm 9 m/S 766 mmHg 57%
    20:00 +13°C° 0 mm 9 m/S 766 mmHg 60%
    21:00 +12°C° 0 mm 9 m/S 766 mmHg 63%
    22:00 +12°C° 0 mm 9 m/S 766 mmHg 65%
    23:00 +12°C° 0 mm 9 m/S 765 mmHg 68%

    27 September, Donnerstag

    Zeit Temperatur Niederschläge Wind Luftdruck Luftfeuchtigkeit
    00:00 +12°C° 0 mm 9 m/S 765 mmHg 70%
    01:00 +12°C° 0 mm 9 m/S 764 mmHg 72%
    02:00 +12°C° 0 mm 9 m/S 764 mmHg 73%
    03:00 +12°C° 0 mm 9 m/S 763 mmHg 73%
    04:00 +12°C° 0 mm 10 m/S 763 mmHg 74%
    05:00 +12°C° 0.1 mm 10 m/S 762 mmHg 74%
    06:00 +12°C° 0.1 mm 10 m/S 762 mmHg 75%
    07:00 +12°C° 0.1 mm 10 m/S 762 mmHg 76%
    08:00 +12°C° 0.3 mm 10 m/S 761 mmHg 77%
    09:00 +13°C° 0.3 mm 11 m/S 761 mmHg 78%
    10:00 +13°C° 0.3 mm 11 m/S 760 mmHg 79%
    11:00 +16°C° 0 mm 11 m/S 760 mmHg 76%
    12:00 +17°C° 0 mm 12 m/S 760 mmHg 73%
    13:00 +18°C° 0 mm 12 m/S 759 mmHg 70%
    14:00 +17°C° 0.3 mm 11 m/S 759 mmHg 75%
    15:00 +17°C° 0.3 mm 10 m/S 759 mmHg 79%
    16:00 +16°C° 0.3 mm 9 m/S 759 mmHg 84%
    17:00 +13°C° 0.4 mm 9 m/S 760 mmHg 83%
    18:00 +12°C° 0.4 mm 9 m/S 760 mmHg 83%
    19:00 +11°C° 0.4 mm 9 m/S 761 mmHg 82%
    20:00 +10°C° 0 mm 9 m/S 762 mmHg 81%
    21:00 +10°C° 0 mm 9 m/S 762 mmHg 80%
    22:00 +8°C° 0 mm 9 m/S 763 mmHg 80%
    23:00 +8°C° 0 mm 9 m/S 763 mmHg 79%
    Mehr zeigen